When you browse on this site, cookies collect data to enhance your experience and personalize the content and advertising you see.
Visit our Privacy Policy to learn more. By continuing to use the site, you agree to this use of cookies and data.
  • In United Kingdom
  • List of Countries
  • For 7 days
  • Water Temperature
  • Weather Map
  • Weather Widgets
  • user-avatar
    Login

    Hourly Weather Ijtimoiy

    Today, 19 August, Monday

    Time Temperature Precipitation Wind Pressure Humidity
    00:00 +18°C° 0 mm 3 mps 683 mmHg 47%
    01:00 +18°C° 0 mm 2 mps 682 mmHg 47%
    02:00 +18°C° 0 mm 2 mps 682 mmHg 46%
    03:00 +17°C° 0 mm 2 mps 682 mmHg 46%
    04:00 +17°C° 0 mm 2 mps 682 mmHg 46%
    05:00 +17°C° 0 mm 2 mps 682 mmHg 46%
    06:00 +19°C° 0 mm 2 mps 683 mmHg 40%
    07:00 +23°C° 0 mm 1 mps 683 mmHg 34%
    08:00 +25°C° 0 mm 1 mps 684 mmHg 28%
    09:00 +27°C° 0 mm 1 mps 684 mmHg 26%
    10:00 +28°C° 0 mm 2 mps 684 mmHg 23%
    11:00 +29°C° 0 mm 2 mps 684 mmHg 21%
    12:00 +30°C° 0 mm 2 mps 684 mmHg 19%
    13:00 +31°C° 0 mm 2 mps 684 mmHg 18%
    14:00 +32°C° 0 mm 2 mps 684 mmHg 17%
    15:00 +30°C° 0.1 mm 3 mps 683 mmHg 22%
    16:00 +28°C° 0.1 mm 4 mps 683 mmHg 27%
    17:00 +26°C° 0.1 mm 6 mps 682 mmHg 33%
    18:00 +25°C° 0 mm 5 mps 683 mmHg 35%
    19:00 +23°C° 0 mm 4 mps 683 mmHg 38%
    20:00 +22°C° 0 mm 3 mps 683 mmHg 40%
    21:00 +22°C° 0 mm 3 mps 683 mmHg 39%
    22:00 +21°C° 0 mm 3 mps 683 mmHg 38%
    23:00 +21°C° 0 mm 3 mps 683 mmHg 37%

    Tomorrow, 20 August, Tuesday

    Time Temperature Precipitation Wind Pressure Humidity
    00:00 +20°C° 0 mm 2 mps 683 mmHg 37%
    01:00 +19°C° 0 mm 2 mps 682 mmHg 38%
    02:00 +18°C° 0 mm 2 mps 682 mmHg 38%
    03:00 +19°C° 0 mm 2 mps 682 mmHg 37%
    04:00 +19°C° 0 mm 2 mps 682 mmHg 35%
    05:00 +19°C° 0 mm 2 mps 682 mmHg 34%
    06:00 +21°C° 0 mm 2 mps 683 mmHg 30%
    07:00 +25°C° 0 mm 2 mps 683 mmHg 26%
    08:00 +27°C° 0 mm 1 mps 684 mmHg 22%
    09:00 +29°C° 0 mm 1 mps 684 mmHg 20%
    10:00 +30°C° 0 mm 1 mps 684 mmHg 17%
    11:00 +32°C° 0 mm 1 mps 684 mmHg 15%
    12:00 +33°C° 0 mm 1 mps 684 mmHg 14%
    13:00 +34°C° 0 mm 1 mps 683 mmHg 13%
    14:00 +35°C° 0 mm 1 mps 683 mmHg 11%
    15:00 +34°C° 0 mm 1 mps 683 mmHg 11%
    16:00 +35°C° 0 mm 2 mps 683 mmHg 11%
    17:00 +35°C° 0 mm 2 mps 683 mmHg 11%
    18:00 +31°C° 0 mm 2 mps 682 mmHg 15%
    19:00 +28°C° 0 mm 2 mps 682 mmHg 19%
    20:00 +25°C° 0 mm 1 mps 681 mmHg 22%
    21:00 +24°C° 0 mm 2 mps 681 mmHg 23%
    22:00 +24°C° 0 mm 2 mps 681 mmHg 23%
    23:00 +24°C° 0 mm 2 mps 681 mmHg 23%

    Day after tomorrow, 21 August, Wednesday

    Time Temperature Precipitation Wind Pressure Humidity
    00:00 +23°C° 0 mm 2 mps 680 mmHg 24%
    01:00 +21°C° 0 mm 2 mps 680 mmHg 25%
    02:00 +20°C° 0 mm 2 mps 680 mmHg 26%
    03:00 +21°C° 0 mm 1 mps 679 mmHg 27%
    04:00 +21°C° 0 mm 1 mps 679 mmHg 27%
    05:00 +20°C° 0 mm 1 mps 679 mmHg 28%
    06:00 +23°C° 0 mm 1 mps 680 mmHg 25%
    07:00 +26°C° 0 mm 1 mps 680 mmHg 21%
    08:00 +28°C° 0 mm 1 mps 681 mmHg 18%
    09:00 +30°C° 0 mm 2 mps 681 mmHg 16%
    10:00 +31°C° 0 mm 2 mps 681 mmHg 15%
    11:00 +34°C° 0 mm 2 mps 681 mmHg 13%
    12:00 +35°C° 0 mm 3 mps 681 mmHg 12%
    13:00 +35°C° 0 mm 3 mps 681 mmHg 11%
    14:00 +36°C° 0 mm 4 mps 681 mmHg 10%
    15:00 +36°C° 0 mm 4 mps 681 mmHg 11%
    16:00 +36°C° 0 mm 4 mps 681 mmHg 11%
    17:00 +36°C° 0 mm 4 mps 681 mmHg 12%
    18:00 +31°C° 0 mm 3 mps 680 mmHg 15%
    19:00 +28°C° 0 mm 2 mps 680 mmHg 19%
    20:00 +25°C° 0 mm 1 mps 679 mmHg 22%
    21:00 +25°C° 0 mm 1 mps 679 mmHg 22%
    22:00 +24°C° 0 mm 2 mps 679 mmHg 23%
    23:00 +24°C° 0 mm 2 mps 679 mmHg 23%

    22 August, Thursday

    Time Temperature Precipitation Wind Pressure Humidity
    00:00 +23°C° 0 mm 2 mps 679 mmHg 24%
    01:00 +21°C° 0 mm 2 mps 679 mmHg 26%
    02:00 +20°C° 0 mm 2 mps 679 mmHg 27%
    03:00 +20°C° 0 mm 2 mps 679 mmHg 27%
    04:00 +20°C° 0 mm 2 mps 678 mmHg 27%
    05:00 +20°C° 0 mm 3 mps 678 mmHg 27%
    06:00 +22°C° 0 mm 3 mps 679 mmHg 25%
    07:00 +25°C° 0 mm 3 mps 679 mmHg 22%
    08:00 +27°C° 0 mm 3 mps 680 mmHg 20%
    09:00 +29°C° 0 mm 3 mps 680 mmHg 18%
    10:00 +31°C° 0 mm 3 mps 680 mmHg 17%
    11:00 +32°C° 0 mm 2 mps 681 mmHg 15%
    12:00 +34°C° 0 mm 3 mps 680 mmHg 14%
    13:00 +35°C° 0 mm 3 mps 680 mmHg 13%
    14:00 +36°C° 0 mm 3 mps 680 mmHg 12%
    15:00 +36°C° 0 mm 3 mps 680 mmHg 13%
    16:00 +36°C° 0 mm 4 mps 680 mmHg 13%
    17:00 +36°C° 0 mm 4 mps 680 mmHg 14%
    18:00 +31°C° 0 mm 3 mps 680 mmHg 18%
    19:00 +28°C° 0 mm 2 mps 679 mmHg 22%
    20:00 +25°C° 0 mm 1 mps 679 mmHg 27%
    21:00 +25°C° 0 mm 2 mps 679 mmHg 27%
    22:00 +24°C° 0 mm 2 mps 679 mmHg 28%
    23:00 +24°C° 0 mm 3 mps 679 mmHg 28%

    23 August, Friday

    Time Temperature Precipitation Wind Pressure Humidity
    00:00 +22°C° 0 mm 3 mps 678 mmHg 29%
    01:00 +22°C° 0 mm 3 mps 678 mmHg 30%
    02:00 +21°C° 0 mm 3 mps 678 mmHg 31%
    03:00 +21°C° 0 mm 3 mps 678 mmHg 32%
    04:00 +21°C° 0 mm 2 mps 678 mmHg 32%
    05:00 +20°C° 0 mm 2 mps 678 mmHg 33%
    06:00 +23°C° 0 mm 2 mps 679 mmHg 29%
    07:00 +26°C° 0 mm 3 mps 679 mmHg 26%
    08:00 +28°C° 0 mm 3 mps 680 mmHg 23%
    09:00 +30°C° 0 mm 3 mps 680 mmHg 21%
    10:00 +31°C° 0 mm 3 mps 680 mmHg 19%
    11:00 +34°C° 0 mm 3 mps 680 mmHg 17%
    12:00 +35°C° 0 mm 3 mps 680 mmHg 16%
    13:00 +36°C° 0 mm 3 mps 680 mmHg 14%
    14:00 +37°C° 0 mm 3 mps 680 mmHg 13%
    15:00 +37°C° 0 mm 4 mps 681 mmHg 13%
    16:00 +37°C° 0 mm 5 mps 681 mmHg 13%
    17:00 +38°C° 0 mm 6 mps 681 mmHg 13%
    18:00 +33°C° 0 mm 5 mps 680 mmHg 18%
    19:00 +29°C° 0 mm 3 mps 680 mmHg 22%
    20:00 +26°C° 0 mm 2 mps 680 mmHg 27%
    21:00 +26°C° 0 mm 2 mps 680 mmHg 27%
    22:00 +26°C° 0 mm 2 mps 680 mmHg 27%
    23:00 +26°C° 0 mm 2 mps 680 mmHg 26%

    24 August, Saturday

    Time Temperature Precipitation Wind Pressure Humidity
    00:00 +26°C° 0 mm 2 mps 681 mmHg 26%
    01:00 +26°C° 0 mm 2 mps 681 mmHg 26%
    02:00 +25°C° 0 mm 2 mps 681 mmHg 26%
    03:00 +24°C° 0 mm 2 mps 680 mmHg 29%
    04:00 +23°C° 0 mm 1 mps 680 mmHg 31%
    05:00 +22°C° 0 mm 1 mps 680 mmHg 33%
    06:00 +24°C° 0 mm 1 mps 681 mmHg 29%
    07:00 +27°C° 0 mm 1 mps 681 mmHg 25%
    08:00 +29°C° 0 mm 1 mps 682 mmHg 21%
    09:00 +31°C° 0 mm 1 mps 682 mmHg 19%
    10:00 +32°C° 0 mm 2 mps 682 mmHg 18%
    11:00 +35°C° 0 mm 2 mps 682 mmHg 16%
    12:00 +36°C° 0 mm 2 mps 682 mmHg 15%
    13:00 +37°C° 0 mm 2 mps 682 mmHg 14%
    14:00 +38°C° 0 mm 2 mps 682 mmHg 12%
    15:00 +38°C° 0 mm 2 mps 682 mmHg 12%
    16:00 +38°C° 0 mm 2 mps 682 mmHg 12%
    17:00 +38°C° 0 mm 3 mps 682 mmHg 12%
    18:00 +34°C° 0 mm 2 mps 681 mmHg 17%
    19:00 +30°C° 0 mm 2 mps 681 mmHg 21%
    20:00 +27°C° 0 mm 2 mps 680 mmHg 25%
    21:00 +27°C° 0 mm 2 mps 680 mmHg 26%
    22:00 +26°C° 0 mm 2 mps 680 mmHg 26%
    23:00 +26°C° 0 mm 2 mps 680 mmHg 27%
    Show more